Weather reports worldwide

Advertisment
Lahr, Germany (10805): temperature & dewpoint: 10.01.2018 20:00:00 - 16.01.2018 20:00:00 (CET)Lahr, Germany (10805): temperature 5cm & temperature -5cm: 10.01.2018 20:00:00 - 16.01.2018 20:00:00 (CET)Lahr, Germany (10805): temperature -20cm & temperature -100cm: 10.01.2018 20:00:00 - 16.01.2018 20:00:00 (CET)Lahr, Germany (10805): wind speed & gusts: 10.01.2018 20:00:00 - 16.01.2018 20:00:00 (CET)Lahr, Germany (10805): wind direction: 10.01.2018 20:00:00 - 16.01.2018 20:00:00 (CET)Lahr, Germany (10805): reduced air pressure: 10.01.2018 20:00:00 - 16.01.2018 20:00:00 (CET)Lahr, Germany (10805): visibility: 10.01.2018 20:00:00 - 16.01.2018 20:00:00 (CET)Lahr, Germany (10805): sunshine duration: 10.01.2018 20:00:00 - 16.01.2018 20:00:00 (CET)Lahr, Germany (10805): precipitation: 10.01.2018 20:00:00 - 16.01.2018 20:00:00 (CET)
Date & Time tt [°C] td [°C] tt 5cm [°C] tt -5cm [°C] tt -20cm [°C] tt -100cm [°C] ff [km/h] ff [kn] fx [km/h] fx [kn] dd ppp [hPa] vv [km] sd [min] rr [mm]
16.01.2018 20:00:00 6,4 2,8 5,6 5,0 5,5 7,0 25 14 57 31 WSW 1002,2 70 0 0,0
16.01.2018 19:00:00 7,8 3,3 6,4 5,2 5,6 7,0 33 18 48 26 WSW 1001,3 30 0 0,0
16.01.2018 18:00:00 5,6 3,6 5,0 5,4 5,6 7,0 9 5 13 7 S 1001,8 35 0 0,0
16.01.2018 17:00:00 5,3 3,5 4,6 5,9 5,6 7,0 7 4 43 23 S 1001,9 70 0 0,9
16.01.2018 16:00:00 5,9 3,1 5,4 7,1 5,5 7,0 15 8 85 46 WNW 1003,4 35 23 0,1
16.01.2018 15:00:00 8,6 5,1 8,6 7,7 5,3 7,0 10 6 23 12 SW 1001,5 70 12 0,0
16.01.2018 14:00:00 7,4 5,3 6,7 6,7 5,2 7,1 22 12 40 21 W 1002,2 28 0 1,0
16.01.2018 13:00:00 7,8 6,0 7,1 6,9 5,0 7,1 18 10 36 19 SW 1001,3 8 0 2,2
16.01.2018 12:00:00 7,8 5,5 7,3 6,7 4,9 7,1 22 12 44 24 WSW 1001,3 70 0 0,7
16.01.2018 11:00:00 8,5 5,5 7,2 6,2 4,8 7,1 27 14 40 22 SSW 1001,4 11 1 0,0
16.01.2018 10:00:00 8,8 5,2 7,8 6,0 4,7 7,1 23 12 44 24 SSW 1001,5 60 0 0,3
16.01.2018 09:00:00 7,8 5,6 6,7 5,7 4,6 7,1 24 13 40 21 SSW 1001,3 12 0 0,3
16.01.2018 08:00:00 7,9 5,7 6,7 5,6 4,5 7,1 23 12 47 26 SSW 1000,7 7 0 0,1
16.01.2018 07:00:00 8,1 5,5 6,7 5,5 4,4 7,1 32 18 54 29 SSW 1000,7 13 0 0,4
16.01.2018 06:00:00 7,9 5,1 7,0 5,3 4,3 7,1 28 15 49 26 SSW 1000,4 24 0 0,1
16.01.2018 05:00:00 8,0 5,0 6,6 5,4 4,2 7,1 29 16 46 25 S 1001,7 43 0 0,3
16.01.2018 04:00:00 8,3 4,9 6,4 5,3 4,0 7,2 27 14 41 22 SSW 1002,8 26 0 0,3
16.01.2018 03:00:00 8,3 4,6 7,7 5,1 3,9 7,2 30 16 48 26 SSW 1003,3 54 0 0,0
16.01.2018 02:00:00 8,3 4,3 7,5 4,9 3,8 7,2 30 16 48 26 S 1003,0 70 0 0,0
16.01.2018 01:00:00 7,9 4,1 7,3 4,8 3,6 7,2 31 17 55 30 SSW 1003,7 70 0 0,0
16.01.2018 00:00:00 7,7 3,9 7,1 4,6 3,5 7,2 38 21 60 33 SSW 1004,2 70 0 0,0
15.01.2018 23:00:00 7,3 3,8 6,1 4,5 3,3 7,2 40 21 67 36 SSW 1004,7 70 0 0,2
15.01.2018 22:00:00 7,2 3,8 5,8 4,3 3,2 7,2 45 24 69 37 SSW 1005,0 11 0 0,3
15.01.2018 21:00:00 7,0 3,8 5,6 4,1 3,0 7,2 42 23 72 39 SSW 1005,9 9 0 0,1
15.01.2018 20:00:00 7,8 3,1 6,5 4,0 2,8 7,2 38 21 62 33 SSW 1006,7 20 0 0,1
15.01.2018 19:00:00 8,4 2,3 6,6 3,4 2,6 7,2 31 17 54 29 SSW 1007,4 17 0 0,0
15.01.2018 18:00:00 8,1 1,7 7,3 3,1 2,4 7,3 27 15 41 22 SSW 1008,9 40 0 0,0
15.01.2018 17:00:00 7,7 1,5 6,9 2,6 2,2 7,3 24 13 42 23 S 1010,1 28 0 0,0
15.01.2018 16:00:00 8,0 1,5 7,1 1,3 2,2 7,3 26 14 37 20 S 1010,9 35 0 0,0
15.01.2018 15:00:00 7,5 1,4 6,7 0,2 2,2 7,3 14 8 27 15 SSW 1013,0 29 0 0,0
15.01.2018 14:00:00 6,8 1,2 6,2 0,2 2,2 7,3 14 8 23 12 SSW 1014,5 20 4 0,0
15.01.2018 13:00:00 4,3 1,2 4,0 0,1 2,2 7,3 10 5 15 8 SW 1016,3 13 0 0,0
15.01.2018 12:00:00 2,3 -0,3 2,2 0,1 2,2 7,3 9 5 13 7 SSW 1017,7 10 0 0,0
15.01.2018 11:00:00 0,9 -1,0 0,2 0,1 2,3 7,3 6 3 14 8 SSW 1019,3 8 0 0,0
15.01.2018 10:00:00 0,2 -1,5 -0,3 0,1 2,3 7,3 9 5 14 7 SSW 1019,5 6 1 0,0
15.01.2018 09:00:00 -0,6 -1,9 -1,0 0,1 2,3 7,3 7 4 14 7 S 1020,3 6 0 0,0
15.01.2018 08:00:00 -1,2 -2,3 -1,7 0,1 2,3 7,3 8 5 13 7 SSW 1020,4 6 0 0,0
15.01.2018 07:00:00 -1,6 -2,7 -2,3 0,1 2,4 7,4 9 5 13 7 SSW 1020,8 5 0 0,0
15.01.2018 06:00:00 -1,8 -2,8 -3,3 0,2 2,4 7,4 7 4 11 6 SSW 1021,1 4,8 0 0,0
15.01.2018 05:00:00 -0,9 -2,2 -1,9 0,2 2,4 7,4 6 3 11 6 S 1021,3 6 0 0,0
15.01.2018 04:00:00 -0,8 -2,1 -1,8 0,2 2,5 7,4 7 4 11 6 S 1021,9 6 0 0,0
15.01.2018 03:00:00 -1,2 -2,3 -2,1 0,3 2,5 7,4 8 4 11 6 S 1022,3 6 0 0,0
15.01.2018 02:00:00 -1,4 -2,4 -2,3 0,3 2,6 7,4 8 5 13 7 SSE 1022,5 5 0 0,0
15.01.2018 01:00:00 -1,0 -2,2 -2,1 0,3 2,6 7,4 10 5 12 7 S 1022,8 5 0 0,0
15.01.2018 00:00:00 -0,9 -2,1 -2,4 0,4 2,7 7,4 9 5 12 7 SSE 1023,1 5 0 0,0
14.01.2018 23:00:00 -1,1 -2,3 -2,5 0,4 2,7 7,4 6 3 11 6 S 1023,3 6 0 0,0
14.01.2018 22:00:00 -0,9 -2,2 -2,1 0,4 2,8 7,4 8 5 14 7 S 1023,2 6 0 0,0
14.01.2018 21:00:00 -1,4 -2,5 -3,4 0,5 2,8 7,4 4 2 9 5 SW 1023,2 6 0 0,0
14.01.2018 20:00:00 -0,9 -2,3 -3,4 0,5 2,9 7,4 5 3 10 6 S 1023,0 4,9 0 0,0
14.01.2018 19:00:00 -0,9 -2,0 -3,1 0,6 3,0 7,5 3 2 5 3 S 1022,9 5 0 0,0
14.01.2018 18:00:00 1,1 -0,8 -1,0 0,8 3,1 7,5 3 2 5 3 SSE 1022,3 7 0 0,0
14.01.2018 17:00:00 2,4 -0,9 -1,4 2,3 3,0 7,5 0 0 5 3 N 1022,0 9 26 0,0
14.01.2018 16:00:00 3,2 -0,2 3,2 3,7 2,8 7,5 4 2 8 4 NNE 1021,8 9 60 0,0
14.01.2018 15:00:00 3,4 -0,6 4,7 3,7 2,7 7,5 4 2 7 4 NNW 1021,4 8 0 0,0
14.01.2018 14:00:00 3,4 -0,6 6,1 1,3 2,7 7,5 3 2 6 4 WNW 1021,3 7 60 0,0
14.01.2018 13:00:00 2,9 -1,5 4,9 0,1 2,7 7,5 2 1 6 3 NW 1021,9 8 60 0,0
14.01.2018 12:00:00 1,4 -1,6 5,0 0,1 2,8 7,5 3 2 6 3 WSW 1022,4 7 60 0,0
14.01.2018 11:00:00 -0,2 -2,1 1,2 0,1 2,8 7,5 4 2 5 3 WSW 1022,8 6 60 0,0
14.01.2018 10:00:00 -1,6 -2,6 -2,2 0,0 2,9 7,5 3 1 5 3 SSW 1022,7 4,5 55 0,0
14.01.2018 09:00:00 -3,5 -3,6 -4,3 0,1 2,9 7,5 0 0 4 2 N 1022,4 1,3 0 0,0
14.01.2018 08:00:00 -3,3 -3,6 -5,1 0,2 3,0 7,5 0 0 3 2 N 1022,1 1,8 0 0,0
14.01.2018 07:00:00 -3,5 -3,9 -5,4 0,2 3,1 7,5 0 0 4 2 N 1021,9 1,8 0 0,0
14.01.2018 06:00:00 -3,1 -3,6 -4,0 0,3 3,2 7,5 3 2 5 3 SW 1021,8 4,0 0 0,0
14.01.2018 05:00:00 -2,8 -3,2 -3,8 0,4 3,2 7,5 0 0 3 2 N 1021,6 2,9 0 0,0
14.01.2018 04:00:00 -2,1 -2,5 -4,4 0,4 3,3 7,5 0 0 8 4 N 1021,6 3,4 0 0,0
14.01.2018 03:00:00 -1,6 -2,4 -2,9 0,5 3,4 7,5 4 2 7 4 SSW 1021,7 4,8 0 0,0
14.01.2018 02:00:00 -2,1 -3,3 -4,3 0,5 3,5 7,5 3 1 7 4 S 1021,6 5 0 0,0
14.01.2018 01:00:00 -2,0 -2,8 -3,2 0,6 3,7 7,5 4 2 7 4 S 1021,6 6 0 0,0
14.01.2018 00:00:00 -0,4 -2,2 -2,2 0,6 3,8 7,5 4 2 13 7 S 1021,9 8 0 0,0
13.01.2018 23:00:00 2,3 -1,5 0,4 0,7 4,0 7,5 10 5 16 9 SSE 1021,6 13 0 0,0
13.01.2018 22:00:00 1,1 -2,2 -1,9 0,7 4,2 7,6 0 0 9 5 N 1021,9 12 0 0,0
13.01.2018 21:00:00 2,7 -1,2 -1,8 0,5 4,4 7,6 3 2 9 5 N 1021,9 12 0 0,0
13.01.2018 20:00:00 3,3 -1,1 -0,5 1,0 4,6 7,6 2 1 9 5 N 1021,8 15 0 0,0
13.01.2018 19:00:00 3,4 -0,9 -0,5 1,8 4,8 7,6 5 3 16 9 ENE 1022,0 14 0 0,0
13.01.2018 18:00:00 4,1 -0,9 1,0 2,7 4,9 7,6 7 4 13 7 ENE 1022,1 15 0 0,0
13.01.2018 17:00:00 4,9 -0,4 2,7 4,1 4,9 7,6 7 4 14 8 E 1022,1 17 26 0,0
13.01.2018 16:00:00 6,2 -0,3 5,9 5,4 4,8 7,6 7 4 14 8 E 1022,0 19 21 0,0
13.01.2018 15:00:00 6,4 -0,1 6,5 5,5 4,6 7,6 12 6 19 10 E 1022,4 18 0 0,0
13.01.2018 14:00:00 6,3 0,1 6,4 5,2 4,5 7,6 7 4 14 8 E 1022,9 18 0 0,0
13.01.2018 13:00:00 6,0 0,0 6,1 4,7 4,4 7,6 7 4 13 7 E 1023,6 18 0 0,0
13.01.2018 12:00:00 5,8 -0,3 5,7 4,2 4,3 7,6 10 6 22 12 E 1024,1 18 0 0,0
13.01.2018 11:00:00 5,6 -0,5 5,4 3,8 4,3 7,6 16 9 24 13 E 1024,4 21 0 0,0
13.01.2018 10:00:00 3,6 1,5 3,7 3,2 4,2 7,6 6 3 13 7 NNE 1024,6 9 0 0,0
13.01.2018 09:00:00 2,7 1,1 2,7 2,8 4,3 7,6 6 3 11 6 NNE 1024,6 9 0 0,0
13.01.2018 08:00:00 2,5 1,2 2,4 2,8 4,3 7,6 7 4 11 6 NE 1024,9 7 0 0,0
13.01.2018 07:00:00 2,7 1,4 2,5 2,8 4,3 7,6 4 2 8 4 N 1025,3 7 0 0,0
13.01.2018 06:00:00 3,0 1,5 2,8 2,7 4,3 7,6 6 3 8 5 N 1025,3 7 0 0,0
13.01.2018 05:00:00 3,2 1,3 2,8 2,6 4,3 7,6 6 3 9 5 NE 1025,6 9 0 0,0
13.01.2018 04:00:00 3,3 1,0 3,0 2,5 4,4 7,6 5 3 10 5 E 1026,1 11 0 0,0
13.01.2018 03:00:00 2,7 1,1 2,5 2,3 4,5 7,6 6 4 11 6 NE 1026,6 9 0 0,0
13.01.2018 02:00:00 2,1 0,6 1,7 2,0 4,6 7,6 7 4 13 7 NNE 1026,2 9 0 0,0
13.01.2018 01:00:00 2,1 0,3 1,4 1,7 4,8 7,6 8 5 16 9 NE 1026,3 10 0 0,0
13.01.2018 00:00:00 1,9 -0,1 -0,2 1,2 5,0 7,6 6 4 16 8 E 1026,4 12 0 0,0
12.01.2018 23:00:00 1,8 -0,7 -0,6 1,8 5,3 7,6 4 2 12 7 SW 1026,4 11 0 0,0
12.01.2018 22:00:00 2,7 0,0 0,7 2,5 5,4 7,6 10 5 16 9 ENE 1026,3 13 0 0,0
12.01.2018 21:00:00 4,2 0,2 2,7 3,7 5,5 7,6 11 6 20 11 ENE 1026,2 19 0 0,0
12.01.2018 20:00:00 5,3 0,8 4,7 4,6 5,6 7,6 9 5 16 9 ESE 1026,1 18 0 0,0
12.01.2018 19:00:00 4,8 1,9 4,6 4,9 5,6 7,6 0 0 8 4 N 1026,3 11 0 0,0
12.01.2018 18:00:00 4,7 3,2 4,4 5,1 5,7 7,6 4 2 4 2 SE 1026,0 7 0 0,0
12.01.2018 17:00:00 4,9 3,0 2,9 5,5 5,6 7,6 3 2 7 4 ENE 1025,5 8 17 0,0
12.01.2018 16:00:00 5,6 3,2 5,7 7,0 5,5 7,6 5 3 13 7 NE 1025,1 8 60 0,0
12.01.2018 15:00:00 5,2 2,6 6,5 7,3 5,3 7,6 9 5 19 11 NNE 1025,2 8 36 0,0
12.01.2018 14:00:00 4,5 2,7 5,9 6,7 5,0 7,6 12 7 18 10 NE 1025,3 7 0 0,0
12.01.2018 13:00:00 4,3 2,3 5,6 6,6 4,8 7,6 11 6 15 8 N 1025,5 7 6 0,0
12.01.2018 12:00:00 4,3 2,7 5,2 5,4 4,7 7,6 9 5 16 9 N 1025,7 7 27 0,0
12.01.2018 11:00:00 3,8 2,4 4,2 4,1 4,7 7,6 8 4 16 9 N 1025,7 9 50 0,0
12.01.2018 10:00:00 3,5 2,4 3,0 3,0 4,8 7,6 9 5 14 8 N 1025,4 6 27 0,0
12.01.2018 09:00:00 2,9 2,6 1,7 3,1 4,9 7,6 5 3 8 4 NNW 1024,7 4,1 0 0,0
12.01.2018 08:00:00 3,4 3,2 3,1 3,2 4,9 7,6 8 4 13 7 NE 1024,3 3,4 0 0,0
12.01.2018 07:00:00 3,6 3,2 3,3 3,6 4,9 7,6 11 6 18 10 NE 1023,9 3,5 0 0,0
12.01.2018 06:00:00 3,3 3,1 3,2 3,6 4,9 7,7 6 3 9 5 NNE 1023,5 3,7 0 0,0
12.01.2018 05:00:00 3,2 3,1 3,4 3,6 5,0 7,7 3 2 4 2 NNE 1023,4 2,2 0 0,0
12.01.2018 04:00:00 2,7 2,7 2,7 3,4 5,0 7,7 3 2 4 2 NE 1022,9 0,2 0 0,0
12.01.2018 03:00:00 2,7 2,7 2,8 3,5 5,1 7,7 0 0 0 0 N 1022,6 0,4 0 0,0
12.01.2018 02:00:00 3,1 3,1 3,0 3,3 5,2 7,7 0 0 4 2 N 1022,3 0,2 0 0,0
12.01.2018 01:00:00 2,6 2,6 2,5 3,0 5,3 7,7 4 2 5 3 S 1022,1 0,1 0 0,0
12.01.2018 00:00:00 2,1 2,1 1,5 2,9 5,5 7,7 0 0 0 0 N 1021,7 0,1 0 0,0
11.01.2018 23:00:00 2,1 2,1 1,0 2,9 5,7 7,7 0 0 0 0 N 1021,3 0,1 0 0,0
11.01.2018 22:00:00 2,2 2,0 0,8 3,4 5,9 7,7 0 0 5 3 N 1020,7 0,2 0 0,0
11.01.2018 21:00:00 4,1 4,1 1,2 4,3 6,0 7,7 5 3 5 3 N 1020,2 0,3 0 0,0
11.01.2018 20:00:00 4,9 4,8 3,4 5,1 6,0 7,7 3 2 5 3 NE 1019,8 0,3 0 0,0
11.01.2018 19:00:00 5,9 5,3 4,6 5,5 6,1 7,7 4 2 10 5 NE 1019,1 3,7 0 0,0
11.01.2018 18:00:00 6,0 5,2 5,1 5,9 6,1 7,7 8 5 10 5 N 1018,6 7 0 0,0
11.01.2018 17:00:00 6,2 5,2 4,8 6,8 6,0 7,7 5 3 9 5 N 1017,9 10 0 0,0
11.01.2018 16:00:00 7,5 5,4 7,1 8,1 5,7 7,7 5 3 7 4 N 1017,2 10 27 0,1
11.01.2018 15:00:00 7,4 5,5 7,3 7,6 5,6 7,7 5 3 10 5 NNE 1016,7 8 0 0,1
11.01.2018 14:00:00 7,6 5,0 7,8 7,0 5,4 7,7 6 3 8 4 NNW 1016,2 13 0 0,0
11.01.2018 13:00:00 7,0 5,0 7,1 6,4 5,2 7,7 3 2 5 3 N 1016,1 12 0 0,0
11.01.2018 12:00:00 6,4 4,3 6,7 6,0 5,0 7,7 4 2 6 4 NNW 1016,0 13 0 0,0
11.01.2018 11:00:00 6,3 4,2 5,9 5,4 5,0 7,7 5 3 7 4 NNW 1015,8 11 12 0,0
11.01.2018 10:00:00 5,9 4,8 5,7 4,1 5,0 7,7 3 2 10 5 SSE 1015,4 12 8 0,0
11.01.2018 09:00:00 3,6 3,3 3,3 3,2 5,1 7,7 5 3 13 7 SSE 1015,0 11 0 0,0
11.01.2018 08:00:00 2,4 2,0 1,5 3,0 5,2 7,7 0 0 7 4 N 1014,3 2,7 0 0,0
11.01.2018 07:00:00 3,8 3,3 1,9 3,6 5,2 7,7 3 2 7 4 NE 1013,5 6 0 0,0
11.01.2018 06:00:00 4,2 3,4 3,5 4,1 5,3 7,7 0 0 8 4 N 1013,2 7 0 0,1
11.01.2018 05:00:00 5,3 3,7 4,4 4,1 5,3 7,7 2 1 9 5 SSW 1012,9 13 0 0,0
11.01.2018 04:00:00 5,4 3,5 4,8 3,9 5,4 7,7 7 4 10 5 S 1012,9 21 0 0,0
11.01.2018 03:00:00 4,0 3,0 3,2 3,9 5,4 7,7 5 3 9 5 S 1012,8 11 0 0,0
11.01.2018 02:00:00 5,0 3,7 3,9 4,2 5,5 7,7 5 3 10 5 SSE 1012,5 23 0 0,0
11.01.2018 01:00:00 5,0 3,9 4,4 4,2 5,6 7,7 5 3 9 5 W 1012,4 22 0 0,0
11.01.2018 00:00:00 4,5 3,4 3,5 4,1 5,7 7,7 6 3 8 4 SE 1012,8 13 0 0,0
10.01.2018 23:00:00 4,7 3,1 3,7 3,9 5,8 7,7 2 1 6 3 W 1013,0 32 0 0,0
10.01.2018 22:00:00 4,9 2,9 1,7 3,8 6,0 7,7 6 3 7 4 WSW 1012,7 39 0 0,0
10.01.2018 21:00:00 5,1 2,7 2,2 4,6 6,1 7,7 6 3 13 7 SW 1012,6 41 0 0,0
10.01.2018 20:00:00 7,7 3,7 5,1 5,5 6,1 7,7 6 3 15 8 S 1012,4 60 0 0,0

tt = temperature
td = dewpoint
tt 5cm = temperature 5cm
tt -5cm = temperature -5cm
tt -20cm = temperature -20cm
tt -100cm = temperature -100cm
ff = wind speed
fx = gusts
dd = wind direction
ppp = reduced air pressure
vv = visibility
sd = sunshine duration
rr = precipitation

Next stations